Location: Arrien
(43.3167°N, 0.1500°W)
Time: 22:47:51
(UTC+00:00)

Cosmos 389 Rocket - Pass Details

Date: 15 October 2021
Orbit: 439 x 468 km, 81.1° (Epoch: 03 December)

Event Time Altitude Azimuth Distance (km) Brightness Sun altitude
Rises 17:53:00 0° 168° (SSE) 2,412 6.0 -7.2°
Reaches altitude 10° 17:55:10 10° 159° (SSE) 1,547 5.0 -7.6°
Maximum altitude 17:58:12 32° 94° (E) 780 3.1 -8.2°
Drops below altitude 10° 18:01:17 10° 30° (NNE) 1,563 4.8 -8.7°
Sets 18:03:28 0° 20° (NNE) 2,441 5.9 -9.1°
